Location: Allen Fire Department Station 4
(33.1073°N, 96.6988°W)
Time: 11:30:54
(UTC+00:00)

Cosmos 1503 Rocket - Pass Details

Date: 03 December 2021
Orbit: 752 x 791 km, 74.0° (Epoch: 23 January)

Event Time Altitude Azimuth Distance (km) Brightness Sun altitude
Rises 12:15:22 0° 213° (SSW) 3,211 7.1 -12.2°
Reaches altitude 10° 12:17:50 10° 220° (SW) 2,295 6.3 -11.7°
Maximum altitude 12:22:45 42° 291° (WNW) 1,096 4.4 -10.7°
Drops below altitude 10° 12:27:45 10° 2° (N) 2,333 6.3 -9.7°
Sets 12:30:17 0° 9° (N) 3,270 7.1 -9.2°
